User: anonymous   Login
Location: Beaurecueil
(43.5122°N, 5.5450°E)
Time: 20:28:11
(UTC+00:00)
Language:

Cosmos 1939 Rocket - Orbit

View from above orbital plane
View from above orbital plane
View from above satellite
View from above satellite

Ground track
Ground track

The orbit data is extracted from the following two-line orbital elements,

1 19046U 88032B   21134.71706463  .00001073  00000-0  83092-4 0  9993
2 19046  97.3878 146.8023 0037527 157.0174 203.2741 15.02916520786716
Epoch (UTC): 14 May 2021 17:12:34
Eccentricity: 0.0037527
inclination: 97.3878°
perigee height: 532 km
apogee height: 584 km
right ascension of ascending node: 146.8023°
argument of perigee: 157.0174°
revolutions per day: 15.02916520
mean anomaly at epoch: 203.2741°
orbit number at epoch: 78671

The dashed part of the orbit path shows where the satellite is in the earth's shadow,  

DLR